Location: Bonneuil
(46.1010°N, 2.9693°E)
Time: 18:55:49
(UTC+00:00)

STARLINK-1269 - Pass Details

Date: 09 April 2020
Orbit: 548 x 550 km, 53.0° (Epoch: 03 June)

Event Time Altitude Azimuth Distance (km) Brightness Sun altitude
Rises 19:42:16 0° 299° (WNW) 2,667 9.2 -13.0°
Reaches altitude 10° 19:44:33 10° 306° (NW) 1,776 7.6 -13.3°
Maximum altitude 19:48:27 47° 21° (NNE) 708 4.2 -13.9°
Enters shadow 19:50:50 21° 87° (E) 1,225 4.9 -14.3°
